Time,TemperatureF,DewpointF,PressureIn,WindDirection,WindDirectionDegrees,WindSpeedMPH,WindSpeedGustMPH,Humidity,HourlyPrecipIn,Conditions,Clouds,dailyrainin,SoftwareType,DateUTC
2013-05-10 00:05:00,61.2,53.6,29.96,WSW,237,0.0,1.0,76,0.00,,,0.00,Wunderground v.1.15,2013-05-10 04:05:00,
2013-05-10 00:10:00,61.1,53.5,29.96,WSW,237,0.0,0.0,76,0.00,,,0.00,Wunderground v.1.15,2013-05-10 04:10:00,
2013-05-10 00:20:00,60.9,54.0,29.96,WSW,237,0.0,0.0,78,0.00,,,0.00,Wunderground v.1.15,2013-05-10 04:20:00,
2013-05-10 00:25:00,60.8,53.9,29.97,WSW,237,1.0,1.0,78,0.00,,,0.00,Wunderground v.1.15,2013-05-10 04:25:00,
2013-05-10 00:30:00,60.7,53.8,29.97,WSW,237,1.0,1.0,78,0.00,,,0.00,Wunderground v.1.15,2013-05-10 04:30:00,
2013-05-10 00:40:00,60.8,53.5,29.97,WSW,237,1.0,2.0,77,0.00,,,0.00,Wunderground v.1.15,2013-05-10 04:40:00,
2013-05-10 00:50:00,61.1,53.5,29.97,WNW,293,1.0,1.0,76,0.00,,,0.00,Wunderground v.1.15,2013-05-10 04:50:00,
2013-05-10 00:55:00,61.3,53.3,29.97,WSW,256,1.0,1.0,75,0.00,,,0.00,Wunderground v.1.15,2013-05-10 04:55:00,
2013-05-10 01:05:00,61.6,53.6,29.97,West,280,0.0,1.0,75,0.00,,,0.00,Wunderground v.1.15,2013-05-10 05:05:00,
2013-05-10 01:15:00,61.3,53.7,29.97,West,280,0.0,0.0,76,0.00,,,0.00,Wunderground v.1.15,2013-05-10 05:15:00,
2013-05-10 01:25:00,60.6,53.3,29.97,West,280,0.0,0.0,77,0.00,,,0.00,Wunderground v.1.15,2013-05-10 05:25:00,
2013-05-10 01:30:00,60.2,53.3,29.97,West,280,0.0,0.0,78,0.00,,,0.00,Wunderground v.1.15,2013-05-10 05:30:00,
2013-05-10 01:40:00,59.7,53.2,29.97,West,280,0.0,0.0,79,0.00,,,0.00,Wunderground v.1.15,2013-05-10 05:40:00,
2013-05-10 01:45:00,59.4,53.2,29.97,West,280,0.0,0.0,80,0.00,,,0.00,Wunderground v.1.15,2013-05-10 05:45:00,
2013-05-10 01:55:00,59.1,52.9,29.97,West,280,0.0,0.0,80,0.00,,,0.00,Wunderground v.1.15,2013-05-10 05:55:00,
2013-05-10 02:05:00,58.8,53.0,29.96,West,280,0.0,0.0,81,0.00,,,0.00,Wunderground v.1.15,2013-05-10 06:05:00,
2013-05-10 02:15:00,58.5,53.0,29.96,West,280,0.0,0.0,82,0.00,,,0.00,Wunderground v.1.15,2013-05-10 06:15:00,
2013-05-10 02:25:00,58.0,52.9,29.95,West,280,0.0,0.0,83,0.00,,,0.00,Wunderground v.1.15,2013-05-10 06:25:00,
2013-05-10 02:35:00,57.7,52.9,29.95,West,280,0.0,0.0,84,0.00,,,0.00,Wunderground v.1.15,2013-05-10 06:35:00,
2013-05-10 02:45:00,57.4,52.9,29.95,West,280,0.0,0.0,85,0.00,,,0.00,Wunderground v.1.15,2013-05-10 06:45:00,
2013-05-10 02:50:00,57.3,52.8,29.95,West,280,0.0,0.0,85,0.00,,,0.00,Wunderground v.1.15,2013-05-10 06:50:00,
2013-05-10 03:00:00,57.1,52.6,29.96,West,280,0.0,0.0,85,0.00,,,0.00,Wunderground v.1.15,2013-05-10 07:00:00,
2013-05-10 03:05:00,57.0,52.9,29.96,West,280,0.0,0.0,86,0.00,,,0.00,Wunderground v.1.15,2013-05-10 07:05:00,
2013-05-10 03:15:00,56.9,52.8,29.95,West,280,0.0,0.0,86,0.00,,,0.00,Wunderground v.1.15,2013-05-10 07:15:00,
2013-05-10 03:20:00,56.8,52.7,29.95,West,280,0.0,0.0,86,0.00,,,0.00,Wunderground v.1.15,2013-05-10 07:20:00,
2013-05-10 03:30:00,56.8,52.7,29.95,West,280,0.0,0.0,86,0.00,,,0.00,Wunderground v.1.15,2013-05-10 07:30:00,
2013-05-10 03:40:00,56.7,52.6,29.95,West,280,0.0,0.0,86,0.00,,,0.00,Wunderground v.1.15,2013-05-10 07:40:00,
2013-05-10 03:50:00,56.6,52.5,29.95,West,280,0.0,0.0,86,0.00,,,0.00,Wunderground v.1.15,2013-05-10 07:50:00,
2013-05-10 04:00:00,56.6,52.8,29.95,West,280,0.0,0.0,87,0.00,,,0.00,Wunderground v.1.15,2013-05-10 08:00:00,
2013-05-10 04:05:00,56.5,52.7,29.96,West,280,0.0,0.0,87,0.00,,,0.00,Wunderground v.1.15,2013-05-10 08:05:00,
2013-05-10 04:15:00,56.4,52.6,29.95,West,280,0.0,0.0,87,0.00,,,0.00,Wunderground v.1.15,2013-05-10 08:15:00,
2013-05-10 04:25:00,56.4,52.9,29.95,West,280,0.0,0.0,88,0.00,,,0.00,Wunderground v.1.15,2013-05-10 08:25:00,
2013-05-10 04:35:00,56.3,52.8,29.95,West,280,0.0,0.0,88,0.00,,,0.00,Wunderground v.1.15,2013-05-10 08:35:00,
2013-05-10 04:45:00,56.1,52.6,29.95,West,280,0.0,0.0,88,0.00,,,0.00,Wunderground v.1.15,2013-05-10 08:45:00,
2013-05-10 04:55:00,55.9,52.4,29.94,West,280,0.0,0.0,88,0.00,,,0.00,Wunderground v.1.15,2013-05-10 08:55:00,
2013-05-10 05:00:00,55.7,52.2,29.94,West,280,0.0,0.0,88,0.00,,,0.00,Wunderground v.1.15,2013-05-10 09:00:00,
2013-05-10 05:05:00,55.7,52.5,29.94,West,280,0.0,0.0,89,0.00,,,0.00,Wunderground v.1.15,2013-05-10 09:05:00,
2013-05-10 05:15:00,55.6,52.7,29.94,West,280,0.0,0.0,90,0.00,,,0.00,Wunderground v.1.15,2013-05-10 09:15:00,
2013-05-10 05:25:00,55.5,52.3,29.94,West,280,0.0,0.0,89,0.00,,,0.00,Wunderground v.1.15,2013-05-10 09:25:00,
2013-05-10 05:30:00,55.5,52.3,29.94,West,280,0.0,0.0,89,0.00,,,0.00,Wunderground v.1.15,2013-05-10 09:30:00,
2013-05-10 05:40:00,55.3,52.4,29.94,West,280,0.0,0.0,90,0.00,,,0.00,Wunderground v.1.15,2013-05-10 09:40:00,
2013-05-10 05:50:00,55.2,52.3,29.94,West,280,0.0,0.0,90,0.00,,,0.00,Wunderground v.1.15,2013-05-10 09:50:00,
2013-05-10 05:55:00,55.1,52.5,29.94,West,280,0.0,0.0,91,0.00,,,0.00,Wunderground v.1.15,2013-05-10 09:55:00,
2013-05-10 06:05:00,55.0,52.1,29.95,West,280,0.0,0.0,90,0.00,,,0.00,Wunderground v.1.15,2013-05-10 10:05:00,
2013-05-10 06:15:00,54.9,52.3,29.95,West,280,0.0,0.0,91,0.00,,,0.00,Wunderground v.1.15,2013-05-10 10:15:00,
2013-05-10 06:25:00,54.8,52.5,29.95,West,280,0.0,0.0,92,0.00,,,0.00,Wunderground v.1.15,2013-05-10 10:25:00,
2013-05-10 06:35:00,54.9,52.6,29.95,West,280,0.0,0.0,92,0.00,,,0.00,Wunderground v.1.15,2013-05-10 10:35:00,
2013-05-10 06:45:00,55.1,53.1,29.95,West,280,0.0,0.0,93,0.00,,,0.00,Wunderground v.1.15,2013-05-10 10:45:00,
2013-05-10 06:55:00,55.1,53.1,29.94,West,280,0.0,0.0,93,0.00,,,0.00,Wunderground v.1.15,2013-05-10 10:55:00,
2013-05-10 07:05:00,55.1,52.8,29.94,West,280,0.0,0.0,92,0.00,,,0.00,Wunderground v.1.15,2013-05-10 11:05:00,
2013-05-10 07:15:00,55.1,52.8,29.94,West,280,0.0,0.0,92,0.00,,,0.00,Wunderground v.1.15,2013-05-10 11:15:00,
2013-05-10 07:20:00,55.1,52.8,29.95,West,280,0.0,0.0,92,0.00,,,0.00,Wunderground v.1.15,2013-05-10 11:20:00,
2013-05-10 07:30:00,55.3,53.0,29.95,West,280,0.0,0.0,92,0.00,,,0.00,Wunderground v.1.15,2013-05-10 11:30:00,
2013-05-10 07:40:00,55.8,53.8,29.95,West,280,0.0,0.0,93,0.00,,,0.00,Wunderground v.1.15,2013-05-10 11:40:00,
2013-05-10 07:50:00,56.1,53.5,29.94,West,280,0.0,0.0,91,0.00,,,0.00,Wunderground v.1.15,2013-05-10 11:50:00,
2013-05-10 08:00:00,56.4,53.5,29.95,SSW,205,0.0,0.0,90,0.00,,,0.00,Wunderground v.1.15,2013-05-10 12:00:00,
2013-05-10 08:05:00,56.7,54.1,29.95,SSW,205,0.0,0.0,91,0.00,,,0.00,Wunderground v.1.15,2013-05-10 12:05:00,
2013-05-10 08:15:00,57.4,54.8,29.94,SSW,205,0.0,0.0,91,0.00,,,0.00,Wunderground v.1.15,2013-05-10 12:15:00,
2013-05-10 08:25:00,58.0,55.1,29.95,SSW,205,0.0,0.0,90,0.00,,,0.00,Wunderground v.1.15,2013-05-10 12:25:00,
2013-05-10 08:35:00,59.0,55.8,29.95,SSW,205,0.0,0.0,89,0.00,,,0.00,Wunderground v.1.15,2013-05-10 12:35:00,
2013-05-10 08:45:00,59.6,56.0,29.95,SSW,205,0.0,0.0,88,0.00,,,0.00,Wunderground v.1.15,2013-05-10 12:45:00,
2013-05-10 08:55:00,60.2,56.0,29.95,SSW,205,0.0,0.0,86,0.00,,,0.00,Wunderground v.1.15,2013-05-10 12:55:00,
2013-05-10 09:00:00,60.6,56.4,29.95,SSW,205,0.0,0.0,86,0.00,,,0.00,Wunderground v.1.15,2013-05-10 13:00:00,
2013-05-10 09:05:00,60.9,56.7,29.95,SSW,205,0.0,0.0,86,0.00,,,0.00,Wunderground v.1.15,2013-05-10 13:05:00,
2013-05-10 09:15:00,61.5,57.3,29.94,SSW,205,0.0,0.0,86,0.00,,,0.00,Wunderground v.1.15,2013-05-10 13:15:00,
2013-05-10 09:25:00,61.8,57.6,29.94,SSW,205,0.0,0.0,86,0.00,,,0.00,Wunderground v.1.15,2013-05-10 13:25:00,
2013-05-10 09:30:00,61.9,57.7,29.94,SSW,205,0.0,0.0,86,0.00,,,0.00,Wunderground v.1.15,2013-05-10 13:30:00,
2013-05-10 09:40:00,62.5,58.3,29.94,SSW,205,0.0,0.0,86,0.00,,,0.00,Wunderground v.1.15,2013-05-10 13:40:00,
2013-05-10 09:50:00,62.9,58.6,29.94,SSW,205,0.0,0.0,86,0.00,,,0.00,Wunderground v.1.15,2013-05-10 13:50:00,
2013-05-10 10:00:00,63.3,58.4,29.94,SSW,205,0.0,0.0,84,0.00,,,0.00,Wunderground v.1.15,2013-05-10 14:00:00,
2013-05-10 10:05:00,63.6,59.3,29.94,SSW,205,0.0,0.0,86,0.00,,,0.00,Wunderground v.1.15,2013-05-10 14:05:00,
2013-05-10 10:15:00,63.8,58.9,29.94,SSW,205,0.0,0.0,84,0.00,,,0.00,Wunderground v.1.15,2013-05-10 14:15:00,
2013-05-10 10:25:00,64.1,58.8,29.94,SSW,205,0.0,0.0,83,0.00,,,0.00,Wunderground v.1.15,2013-05-10 14:25:00,
2013-05-10 10:35:00,64.1,59.2,29.94,SSW,205,0.0,0.0,84,0.00,,,0.00,Wunderground v.1.15,2013-05-10 14:35:00,
2013-05-10 10:45:00,64.4,59.8,29.94,SSW,205,0.0,0.0,85,0.00,,,0.00,Wunderground v.1.15,2013-05-10 14:45:00,
2013-05-10 10:55:00,64.9,59.6,29.94,SSW,205,0.0,0.0,83,0.00,,,0.00,Wunderground v.1.15,2013-05-10 14:55:00,
2013-05-10 11:05:00,65.0,59.7,29.94,SSW,205,0.0,0.0,83,0.00,,,0.00,Wunderground v.1.15,2013-05-10 15:05:00,
2013-05-10 11:15:00,65.0,60.0,29.93,SSW,205,0.0,0.0,84,0.00,,,0.00,Wunderground v.1.15,2013-05-10 15:15:00,
2013-05-10 11:25:00,64.9,59.9,29.94,SSW,205,0.0,0.0,84,0.00,,,0.00,Wunderground v.1.15,2013-05-10 15:25:00,
2013-05-10 11:35:00,65.4,60.4,29.93,SSW,205,0.0,0.0,84,0.00,,,0.00,Wunderground v.1.15,2013-05-10 15:35:00,
2013-05-10 11:45:00,66.7,60.3,29.92,SSW,205,0.0,0.0,80,0.00,,,0.00,Wunderground v.1.15,2013-05-10 15:45:00,
2013-05-10 11:55:00,68.1,60.2,29.92,SSW,205,0.0,0.0,76,0.00,,,0.00,Wunderground v.1.15,2013-05-10 15:55:00,
2013-05-10 12:00:00,68.3,60.4,29.92,SSW,205,0.0,0.0,76,0.00,,,0.00,Wunderground v.1.15,2013-05-10 16:00:00,
2013-05-10 12:05:00,68.6,60.7,29.91,SSW,205,0.0,0.0,76,0.00,,,0.00,Wunderground v.1.15,2013-05-10 16:05:00,
2013-05-10 12:15:00,69.9,62.0,29.91,SE,137,0.0,0.0,76,0.00,,,0.00,Wunderground v.1.15,2013-05-10 16:15:00,
2013-05-10 12:25:00,72.0,63.3,29.90,SE,139,0.0,1.0,74,0.00,,,0.00,Wunderground v.1.15,2013-05-10 16:25:00,
2013-05-10 12:30:00,72.9,60.0,29.90,South,181,1.0,1.0,64,0.00,,,0.00,Wunderground v.1.15,2013-05-10 16:30:00,
2013-05-10 12:35:00,73.5,61.0,29.90,SSW,199,1.0,1.0,65,0.00,,,0.00,Wunderground v.1.15,2013-05-10 16:35:00,
2013-05-10 12:40:00,73.8,61.7,29.91,SSW,199,1.0,1.0,66,0.00,,,0.00,Wunderground v.1.15,2013-05-10 16:40:00,
2013-05-10 12:50:00,74.7,61.7,29.90,SSW,199,0.0,0.0,64,0.00,,,0.00,Wunderground v.1.15,2013-05-10 16:50:00,
2013-05-10 13:00:00,75.7,61.3,29.89,SSE,149,1.0,2.0,61,0.00,,,0.00,Wunderground v.1.15,2013-05-10 17:00:00,
2013-05-10 13:05:00,76.6,62.6,29.89,SSW,206,1.0,2.0,62,0.00,,,0.00,Wunderground v.1.15,2013-05-10 17:05:00,
2013-05-10 13:15:00,77.5,60.6,29.89,SE,124,1.0,1.0,56,0.00,,,0.00,Wunderground v.1.15,2013-05-10 17:15:00,
2013-05-10 13:25:00,77.3,60.9,29.88,South,183,1.0,1.0,57,0.00,,,0.00,Wunderground v.1.15,2013-05-10 17:25:00,
2013-05-10 13:35:00,77.8,63.3,29.88,WSW,241,1.0,2.0,61,0.00,,,0.00,Wunderground v.1.15,2013-05-10 17:35:00,
2013-05-10 13:45:00,77.4,61.9,29.88,WSW,242,1.0,2.0,59,0.00,,,0.00,Wunderground v.1.15,2013-05-10 17:45:00,
2013-05-10 13:55:00,78.2,61.2,29.87,SSW,212,1.0,1.0,56,0.00,,,0.00,Wunderground v.1.15,2013-05-10 17:55:00,
2013-05-10 14:05:00,78.9,61.4,29.87,East,99,0.0,1.0,55,0.00,,,0.00,Wunderground v.1.15,2013-05-10 18:05:00,
2013-05-10 14:15:00,78.7,62.7,29.86,East,100,0.0,0.0,58,0.00,,,0.00,Wunderground v.1.15,2013-05-10 18:15:00,
2013-05-10 14:25:00,79.9,61.2,29.85,East,91,0.0,0.0,53,0.00,,,0.00,Wunderground v.1.15,2013-05-10 18:25:00,
2013-05-10 14:35:00,81.6,63.3,29.85,East,79,1.0,1.0,54,0.00,,,0.00,Wunderground v.1.15,2013-05-10 18:35:00,
2013-05-10 14:45:00,81.9,62.0,29.84,ENE,76,1.0,1.0,51,0.00,,,0.00,Wunderground v.1.15,2013-05-10 18:45:00,
2013-05-10 14:55:00,79.7,64.6,29.84,ENE,75,0.0,1.0,60,0.00,,,0.01,Wunderground v.1.15,2013-05-10 18:55:00,
2013-05-10 15:05:00,73.9,65.5,29.84,NNW,342,2.0,3.0,75,0.18,,,0.14,Wunderground v.1.15,2013-05-10 19:05:00,
2013-05-10 15:15:00,71.5,67.1,29.83,NNW,348,1.0,3.0,86,0.05,,,0.14,Wunderground v.1.15,2013-05-10 19:15:00,
2013-05-10 15:25:00,71.0,67.3,29.83,ENE,58,0.0,0.0,88,0.00,,,0.14,Wunderground v.1.15,2013-05-10 19:25:00,
2013-05-10 15:35:00,70.8,66.1,29.82,ENE,58,0.0,0.0,85,0.00,,,0.14,Wunderground v.1.15,2013-05-10 19:35:00,
2013-05-10 15:45:00,69.8,65.8,29.83,ENE,57,0.0,1.0,87,0.00,,,0.15,Wunderground v.1.15,2013-05-10 19:45:00,
2013-05-10 15:55:00,69.4,66.3,29.83,NW,323,1.0,3.0,90,0.00,,,0.15,Wunderground v.1.15,2013-05-10 19:55:00,
2013-05-10 16:00:00,69.1,66.4,29.82,NW,323,1.0,1.0,91,0.00,,,0.15,Wunderground v.1.15,2013-05-10 20:00:00,
2013-05-10 16:05:00,69.1,66.4,29.82,NW,323,0.0,1.0,91,0.00,,,0.15,Wunderground v.1.15,2013-05-10 20:05:00,
2013-05-10 16:15:00,68.4,65.0,29.83,NW,312,1.0,1.0,89,0.00,,,0.15,Wunderground v.1.15,2013-05-10 20:15:00,
2013-05-10 16:25:00,67.9,64.2,29.84,NNW,347,1.0,1.0,88,0.00,,,0.15,Wunderground v.1.15,2013-05-10 20:25:00,
2013-05-10 16:30:00,68.3,64.9,29.83,WNW,302,1.0,2.0,89,0.00,,,0.15,Wunderground v.1.15,2013-05-10 20:30:00,
2013-05-10 16:40:00,69.2,65.8,29.82,NNW,338,1.0,1.0,89,0.00,,,0.15,Wunderground v.1.15,2013-05-10 20:40:00,
2013-05-10 16:50:00,69.3,65.6,29.82,NNW,338,0.0,0.0,88,0.00,,,0.15,Wunderground v.1.15,2013-05-10 20:50:00,
2013-05-10 16:55:00,69.2,64.8,29.82,NNW,339,0.0,0.0,86,0.00,,,0.15,Wunderground v.1.15,2013-05-10 20:55:00,
2013-05-10 17:05:00,68.9,63.9,29.82,West,281,0.0,0.0,84,0.00,,,0.15,Wunderground v.1.15,2013-05-10 21:05:00,
2013-05-10 17:15:00,68.7,64.7,29.82,West,281,0.0,0.0,87,0.00,,,0.15,Wunderground v.1.15,2013-05-10 21:15:00,
2013-05-10 17:25:00,68.0,63.0,29.82,West,281,0.0,1.0,84,0.00,,,0.15,Wunderground v.1.15,2013-05-10 21:25:00,
2013-05-10 17:35:00,67.0,62.7,29.82,West,281,0.0,1.0,86,0.00,,,0.15,Wunderground v.1.15,2013-05-10 21:35:00,
2013-05-10 17:45:00,65.7,62.7,29.86,West,272,3.0,10.0,90,1.66,,,0.21,Wunderground v.1.15,2013-05-10 21:45:00,
2013-05-10 17:50:00,64.6,59.7,29.88,WSW,247,10.0,20.0,84,0.17,,,0.23,Wunderground v.1.15,2013-05-10 21:50:00,
2013-05-10 18:00:00,62.0,58.1,29.86,SSW,198,12.0,12.0,87,0.49,,,0.28,Wunderground v.1.15,2013-05-10 22:00:00,
2013-05-10 18:05:00,61.5,58.2,29.86,WSW,241,11.0,12.0,89,0.13,,,0.29,Wunderground v.1.15,2013-05-10 22:05:00,
2013-05-10 18:10:00,61.2,58.2,29.85,WSW,251,9.0,11.0,90,0.12,,,0.30,Wunderground v.1.15,2013-05-10 22:10:00,
2013-05-10 18:20:00,61.2,58.2,29.85,SSW,199,8.0,8.0,90,0.32,,,0.33,Wunderground v.1.15,2013-05-10 22:20:00,
2013-05-10 18:25:00,61.0,58.4,29.84,SW,227,6.0,8.0,91,0.16,,,0.34,Wunderground v.1.15,2013-05-10 22:25:00,
2013-05-10 18:35:00,61.3,58.0,29.83,WSW,239,3.0,5.0,89,0.05,,,0.34,Wunderground v.1.15,2013-05-10 22:35:00,
2013-05-10 18:45:00,61.6,57.7,29.83,SW,222,6.0,9.0,87,0.00,,,0.34,Wunderground v.1.15,2013-05-10 22:45:00,
2013-05-10 18:55:00,61.9,58.3,29.84,WSW,239,6.0,8.0,88,0.00,,,0.34,Wunderground v.1.15,2013-05-10 22:55:00,
2013-05-10 19:05:00,62.2,58.0,29.83,West,272,6.0,11.0,86,0.00,,,0.34,Wunderground v.1.15,2013-05-10 23:05:00,
2013-05-10 19:15:00,62.9,58.0,29.83,WNW,297,8.0,16.0,84,0.00,,,0.34,Wunderground v.1.15,2013-05-10 23:15:00,
2013-05-10 19:25:00,63.2,57.9,29.83,WSW,246,7.0,7.0,83,0.00,,,0.34,Wunderground v.1.15,2013-05-10 23:25:00,
2013-05-10 19:35:00,63.4,58.1,29.85,WSW,239,7.0,8.0,83,0.00,,,0.34,Wunderground v.1.15,2013-05-10 23:35:00,
2013-05-10 19:40:00,63.4,57.8,29.84,WSW,247,5.0,9.0,82,0.00,,,0.34,Wunderground v.1.15,2013-05-10 23:40:00,
2013-05-10 19:50:00,63.5,57.9,29.85,South,185,5.0,5.0,82,0.00,,,0.34,Wunderground v.1.15,2013-05-10 23:50:00,
2013-05-10 20:00:00,63.3,58.4,29.85,SW,220,2.0,2.0,84,0.00,,,0.34,Wunderground v.1.15,2013-05-11 00:00:00,
2013-05-10 20:05:00,63.1,58.5,29.84,NNE,27,1.0,2.0,85,0.00,,,0.34,Wunderground v.1.15,2013-05-11 00:05:00,
2013-05-10 20:15:00,62.4,58.5,29.85,NNE,27,1.0,1.0,87,0.00,,,0.34,Wunderground v.1.15,2013-05-11 00:15:00,
2013-05-10 20:25:00,61.9,58.0,29.86,NNE,27,0.0,1.0,87,0.00,,,0.34,Wunderground v.1.15,2013-05-11 00:25:00,
2013-05-10 20:35:00,61.8,57.9,29.86,West,265,1.0,1.0,87,0.00,,,0.34,Wunderground v.1.15,2013-05-11 00:35:00,
2013-05-10 20:45:00,61.6,58.6,29.86,West,270,1.0,3.0,90,0.00,,,0.34,Wunderground v.1.15,2013-05-11 00:45:00,
2013-05-10 20:55:00,61.2,58.6,29.85,West,268,1.0,3.0,91,0.00,,,0.34,Wunderground v.1.15,2013-05-11 00:55:00,
2013-05-10 21:00:00,61.0,58.7,29.85,West,264,2.0,3.0,92,0.00,,,0.34,Wunderground v.1.15,2013-05-11 01:00:00,
2013-05-10 21:05:00,60.8,58.2,29.85,West,279,2.0,3.0,91,0.00,,,0.34,Wunderground v.1.15,2013-05-11 01:05:00,
2013-05-10 21:15:00,60.7,58.4,29.85,WSW,253,0.0,1.0,92,0.00,,,0.34,Wunderground v.1.15,2013-05-11 01:15:00,
2013-05-10 21:20:00,60.6,58.3,29.85,WSW,253,0.0,0.0,92,0.00,,,0.35,Wunderground v.1.15,2013-05-11 01:20:00,
2013-05-10 21:30:00,60.5,58.5,29.85,WSW,252,0.0,0.0,93,0.00,,,0.35,Wunderground v.1.15,2013-05-11 01:30:00,
2013-05-10 21:40:00,60.4,58.4,29.85,WSW,252,0.0,0.0,93,0.00,,,0.35,Wunderground v.1.15,2013-05-11 01:40:00,
2013-05-10 21:50:00,60.3,58.3,29.85,WSW,252,0.0,0.0,93,0.00,,,0.35,Wunderground v.1.15,2013-05-11 01:50:00,
2013-05-10 22:00:00,60.2,58.2,29.84,WSW,253,0.0,0.0,93,0.00,,,0.35,Wunderground v.1.15,2013-05-11 02:00:00,
2013-05-10 22:05:00,60.2,58.2,29.84,WSW,253,0.0,0.0,93,0.00,,,0.35,Wunderground v.1.15,2013-05-11 02:05:00,
2013-05-10 22:15:00,60.1,58.4,29.84,WSW,252,0.0,0.0,94,0.00,,,0.35,Wunderground v.1.15,2013-05-11 02:15:00,
2013-05-10 22:25:00,60.0,58.3,29.83,WSW,253,0.0,0.0,94,0.00,,,0.35,Wunderground v.1.15,2013-05-11 02:25:00,
2013-05-10 22:30:00,59.9,58.2,29.82,WSW,252,0.0,0.0,94,0.00,,,0.35,Wunderground v.1.15,2013-05-11 02:30:00,
2013-05-10 22:40:00,59.8,58.1,29.82,WSW,252,0.0,1.0,94,0.00,,,0.35,Wunderground v.1.15,2013-05-11 02:40:00,
2013-05-10 22:50:00,59.6,57.9,29.81,WSW,253,0.0,1.0,94,0.00,,,0.35,Wunderground v.1.15,2013-05-11 02:50:00,
2013-05-10 22:55:00,59.6,58.2,29.81,WSW,252,0.0,1.0,95,0.00,,,0.35,Wunderground v.1.15,2013-05-11 02:55:00,
2013-05-10 23:05:00,59.4,58.0,29.81,WSW,253,0.0,0.0,95,0.00,,,0.35,Wunderground v.1.15,2013-05-11 03:05:00,
2013-05-10 23:15:00,59.4,58.0,29.80,WSW,253,0.0,0.0,95,0.00,,,0.35,Wunderground v.1.15,2013-05-11 03:15:00,
2013-05-10 23:25:00,59.4,58.0,29.80,WSW,253,0.0,0.0,95,0.00,,,0.35,Wunderground v.1.15,2013-05-11 03:25:00,
2013-05-10 23:35:00,59.4,58.0,29.80,WSW,252,0.0,0.0,95,0.00,,,0.35,Wunderground v.1.15,2013-05-11 03:35:00,
2013-05-10 23:45:00,59.4,58.0,29.80,WSW,253,0.0,0.0,95,0.00,,,0.35,Wunderground v.1.15,2013-05-11 03:45:00,
2013-05-10 23:50:00,59.5,58.1,29.80,WSW,252,0.0,0.0,95,0.00,,,0.35,Wunderground v.1.15,2013-05-11 03:50:00,